Regional Weather Roundup
Issued by NWS

Home | Current Version | Previous Version | Text Only | Print | Product List | Glossary On
Versions: 1 2 3 4 5 6 7 8 9 10 11 12 13 14 15 16 17 18 19 20 21 22 23 24 25 26 27 28 29 30 31 32 33 34 35 36 37 38 39 40 41 42 43 44 45 46 47 48 49 50
000
ASUS45 KPSR 240310
RWRAZ

ARIZONA REGIONAL HOURLY WEATHER ROUNDUP
NATIONAL WEATHER SERVICE PHOENIX AZ
800 PM MST WED JUL 23 2014

NOTE: FAIR INDICATES FEW OR NO CLOUDS BELOW 12,000 FEET WITH NO
SIGNIFICANT WEATHER AND/OR OBSTRUCTIONS TO VISIBILITY.

AZZ001>003-036-240400-
NORTHWEST ARIZONA

CITY           SKY/WX    TMP DP  RH WIND       PRES   REMARKS
BULLHEAD CITY  CLEAR    111  36   7 S12       29.73S HX 104
KINGMAN        PTCLDY    94  35  12 SW9       30.00R
$$

AZZ004>008-015-016-018-240400-
NORTH CENTRAL ARIZONA

CITY           SKY/WX    TMP DP  RH WIND       PRES   REMARKS
GRAND CANYON   CLOUDY    79  40  24 CALM      30.30R
WILLIAMS       CLOUDY    79  45  29 S7        30.37S
PRESCOTT       MOCLDY    87  47  24 S8        30.16R
FLAGSTAFF      CLOUDY    76  44  32 S5        30.35S
PAYSON         CLOUDY    81  55  41 E10G17    30.25R
PAGE           PTCLDY    96  43  16 SE12      30.04R
$$

AZZ009>014-017-240400-
NORTHEAST ARIZONA

CITY           SKY/WX    TMP DP  RH WIND       PRES   REMARKS
WINSLOW        CLOUDY    79  56  45 SE10      30.22R
SAINT JOHNS    CLOUDY    74  62  66 SE8       30.29R
WINDOW ROCK    CLOUDY    73  49  42 SE6       30.38R
SHOW LOW       CLOUDY    66  54  63 S9        30.36F
$$

AZZ023-240400-
GREATER PHOENIX AREA

CITY           SKY/WX    TMP DP  RH WIND       PRES   REMARKS
PHOENIX        MOCLDY   107  55  18 SE13      29.78R HX 106
BUCKEYE          N/A    102  52  18 E7        29.78R HX 100
GLENDALE       MOCLDY   108  55  18 VRB5      29.79R HX 106
LUKE AFB       NOT AVBL
DEER VALLEY    MOCLDY   100  57  23 NE20G28   29.82R
SCOTTSDALE     CLOUDY   105  55  19 VRB6      29.85R HX 104
MESA-FALCON    MOCLDY   104  55  20 E12G17    29.82R HX 103
MESA-GATEWAY   MOCLDY   104  52  17 E15       29.84R HX 101
CHANDLER       MOCLDY   100  61  27 E13         N/A  HX 101
$$

AZZ027-028-240400-
SOUTHWEST MARICOPA COUNTY AND PINAL COUNTY

CITY           SKY/WX    TMP DP  RH WIND       PRES   REMARKS
CASA GRANDE    MOCLDY   102  55  21 E10       29.85R HX 101
GILA BEND      MOCLDY   109  45  11 NW3       29.77R HX 104
$$

AZZ503-504-507>509-240400-
SOUTHEAST ARIZONA

CITY           SKY/WX    TMP DP  RH WIND       PRES   REMARKS
TUCSON         CLOUDY    91  60  35 SW15G33   30.01R
DAVIS-MONTHAN  CLOUDY    97  56  25 E6        29.98R
RYAN FIELD       N/A     86  63  45 SE26G33   29.97R
SIERRA VISTA   PTCLDY    84  48  28 SE6       30.16R
DOUGLAS        CLEAR     85  54  34 SE9       30.11R
SAFFORD        MOCLDY    89  58  34 E9        30.04S
$$

AZZ020-021-025-026-031-240400-
SOUTHWEST ARIZONA

CITY           SKY/WX    TMP DP  RH WIND       PRES   REMARKS
YUMA           NOT AVBL
$$

CAZ031-033-041-043-047-048-061-240400-
SOUTHERN CALIFORNIA

CITY           SKY/WX    TMP DP  RH WIND       PRES   REMARKS
DOWNTOWN L.A.  CLEAR     75  60  59 W3        29.87F
L.A. AIRPORT   PTCLDY    72  60  66 W16G23    29.87F
SAN DIEGO      PTCLDY    74  64  71 NW6       29.91R
BURBANK        CLEAR     84  55  36 SE6       29.88F
ONTARIO        PTCLDY    86  47  25 W9        29.90R
RIVERSIDE      CLEAR     86  45  23 W6        29.90R
PALM SPRINGS   CLEAR    106  42  11 NW16      29.75R HX 101
EL CENTRO NAS  PTCLDY   108  39   9 S6        29.68S HX 102
IMPERIAL       PTCLDY   109  38   9 S3        29.68R HX 102
BLYTHE         PTCLDY   110  38   8 S5        29.71R HX 103
NEEDLES        CLEAR    110  24   5 SW10      29.76R HX 101
$$

NVZ020-UTZ003-240400-
SOUTHERN NEVADA-UTAH

CITY           SKY/WX    TMP DP  RH WIND       PRES   REMARKS
LAS VEGAS      PTCLDY   105  25   6 SW15      29.80S
SALT LAKE CITY MOCLDY    92  42  17 S16       29.93S
$$

NMZ009-TXZ055-240400-
NEW MEXICO-WEST TEXAS

CITY           SKY/WX    TMP DP  RH WIND       PRES   REMARKS
ALBUQUERQUE    PTCLDY    80  57  45 N9        30.28R
EL PASO        PTCLDY    88  46  23 E9        30.14R
$$


........................KEY........................
SKY/WX - SKY CONDITION/WEATHER
TMP    - TEMPERATURE IN FAHRENHEIT
DP     - DEW POINT IN FAHRENHEIT
RH     - RELATIVE HUMIDITY IN PERCENT
WIND   - DIRECTION AND SPEED IN MILES PER HOUR (MPH)
VRB    - VARIABLE WIND DIRECTION
PRES   - MEAN SEA LEVEL PRESSURE IN INCHES OF MERCURY
         F - FALLING PRESSURE   R - RISING PRESSURE
         S - STEADY PRESSURE
VSB    - VISIBILITY IN MILES
HX     - HEAT INDEX IN FAHRENHEIT
WCI    - WIND CHILL INDEX IN FAHRENHEIT
TC     - TEMPERATURE IN CELSIUS WHICH IS ALSO KNOWN AS
         TEMPERATURE IN CENTIGRADE
AFB    - AIR FORCE BASE
         LUKE AFB IS LUKE AIR FORCE BASE
         DAVIS-MONTHAN IS DAVIS-MONTHAN AIR FORCE BASE
NAS    - NAVAL AIR STATION
         EL CENTRO NAS IS EL CENTRO NAVAL AIR STATION
N/A    - NOT AVAILABLE


USA.gov is the U.S. government's official web portal to all federal, state and local government web resources and services.